TimeMST,TemperatureF,Dew PointF,Humidity,Sea Level PressureIn,VisibilityMPH,Wind Direction,Wind SpeedMPH,Gust SpeedMPH,PrecipitationIn,Events,Conditions,WindDirDegrees,DateUTC
12:53 AM,32.0,-0.9,24,30.13,10.0,SW,23.0,-,N/A,,Clear,230,2012-11-27 07:53:00
1:53 AM,32.0,3.9,31,30.12,10.0,WSW,26.5,-,N/A,,Clear,240,2012-11-27 08:53:00
2:53 AM,32.0,6.1,34,30.12,10.0,SW,25.3,-,N/A,,Clear,230,2012-11-27 09:53:00
3:53 AM,33.1,5.0,31,30.09,10.0,SW,28.8,34.5,N/A,,Clear,230,2012-11-27 10:53:00
4:53 AM,33.1,5.0,31,30.12,10.0,WSW,28.8,35.7,N/A,,Clear,240,2012-11-27 11:53:00
5:53 AM,34.0,3.0,27,30.15,10.0,SW,31.1,38.0,N/A,,Clear,230,2012-11-27 12:53:00
6:53 AM,33.1,1.0,26,30.15,10.0,SW,29.9,35.7,N/A,,Clear,230,2012-11-27 13:53:00
7:53 AM,35.1,-0.9,22,30.11,10.0,WSW,27.6,33.4,N/A,,Clear,240,2012-11-27 14:53:00
8:53 AM,41.0,-0.9,17,30.10,10.0,SSW,31.1,40.3,N/A,,Clear,210,2012-11-27 15:53:00
9:53 AM,43.0,-0.0,17,30.09,10.0,SW,25.3,38.0,N/A,,Clear,220,2012-11-27 16:53:00
10:53 AM,45.0,1.0,16,30.08,10.0,WSW,27.6,35.7,N/A,,Clear,240,2012-11-27 17:53:00
11:53 AM,46.9,1.9,16,30.06,10.0,West,28.8,33.4,N/A,,Clear,260,2012-11-27 18:53:00
12:53 PM,46.9,3.0,16,30.02,10.0,West,29.9,39.1,N/A,,Clear,260,2012-11-27 19:53:00
1:53 PM,48.9,3.0,15,30.01,10.0,West,26.5,34.5,N/A,,Clear,280,2012-11-27 20:53:00
2:53 PM,45.0,5.0,19,30.07,10.0,West,15.0,26.5,N/A,,Clear,270,2012-11-27 21:53:00
3:53 PM,45.0,5.0,19,30.09,10.0,West,19.6,-,N/A,,Clear,260,2012-11-27 22:53:00
4:53 PM,35.1,6.1,30,30.17,10.0,West,13.8,-,N/A,,Clear,260,2012-11-27 23:53:00
5:53 PM,36.0,8.1,31,30.15,10.0,West,15.0,-,N/A,,Clear,260,2012-11-28 00:53:00
6:53 PM,30.0,7.0,38,30.22,10.0,West,5.8,-,N/A,,Clear,270,2012-11-28 01:53:00
7:53 PM,35.1,5.0,28,30.20,10.0,WSW,15.0,-,N/A,,Clear,240,2012-11-28 02:53:00
8:53 PM,37.0,6.1,28,30.15,10.0,West,9.2,-,N/A,,Clear,270,2012-11-28 03:53:00
9:53 PM,37.9,9.0,30,30.13,10.0,SE,9.2,24.2,N/A,,Clear,140,2012-11-28 04:53:00
10:53 PM,39.0,9.0,29,30.12,10.0,SW,23.0,31.1,N/A,,Clear,220,2012-11-28 05:53:00
11:53 PM,37.0,9.0,31,30.13,10.0,SSW,10.4,-,N/A,,Clear,210,2012-11-28 06:53:00